TimeCST,TemperatureF,Dew PointF,Humidity,Sea Level PressureIn,VisibilityMPH,Wind Direction,Wind SpeedMPH,Gust SpeedMPH,PrecipitationIn,Events,Conditions,WindDirDegrees,DateUTC
12:07 AM,28.4,17.6,64,29.96,10.0,North,24.2,29.9,N/A,,Mostly Cloudy,10,2014-01-05 06:07:00
12:20 AM,26.6,17.6,69,29.97,10.0,North,25.3,32.2,N/A,,Scattered Clouds,360,2014-01-05 06:20:00
12:28 AM,26.6,17.6,69,29.98,10.0,North,24.2,31.1,N/A,,Mostly Cloudy,10,2014-01-05 06:28:00
12:39 AM,26.6,15.8,64,29.98,10.0,North,28.8,35.7,N/A,,Scattered Clouds,10,2014-01-05 06:39:00
12:53 AM,26.1,16.0,66,30.00,10.0,North,23.0,34.5,N/A,,Mostly Cloudy,10,2014-01-05 06:53:00
1:11 AM,26.6,17.6,69,30.01,10.0,North,25.3,31.1,N/A,,Overcast,360,2014-01-05 07:11:00
1:33 AM,24.8,17.6,74,30.00,10.0,North,26.5,36.8,N/A,,Overcast,10,2014-01-05 07:33:00
1:41 AM,24.8,15.8,69,30.00,10.0,North,29.9,39.1,N/A,,Overcast,360,2014-01-05 07:41:00
1:53 AM,24.1,16.0,71,30.02,10.0,North,31.1,40.3,N/A,,Overcast,10,2014-01-05 07:53:00
2:53 AM,21.9,17.1,82,30.06,3.0,NNE,25.3,42.6,0.00,Snow,Light Snow,20,2014-01-05 08:53:00
3:21 AM,21.2,17.6,86,30.06,2.5,North,19.6,-,0.00,Snow,Light Snow,10,2014-01-05 09:21:00
3:24 AM,21.2,17.6,86,30.06,3.0,North,28.8,35.7,0.00,Snow,Light Snow,10,2014-01-05 09:24:00
3:53 AM,21.9,16.0,78,30.08,9.0,North,25.3,35.7,0.00,,Overcast,10,2014-01-05 09:53:00
4:53 AM,21.0,17.1,85,30.11,10.0,North,16.1,-,0.00,,Partly Cloudy,360,2014-01-05 10:53:00
5:15 AM,23.0,17.6,80,30.09,10.0,North,19.6,-,N/A,,Mostly Cloudy,350,2014-01-05 11:15:00
5:53 AM,21.9,16.0,78,30.16,10.0,North,18.4,31.1,N/A,,Overcast,350,2014-01-05 11:53:00
6:16 AM,21.2,14.0,74,30.13,10.0,North,23.0,33.4,N/A,,Mostly Cloudy,360,2014-01-05 12:16:00
6:53 AM,19.9,12.9,74,30.19,10.0,North,20.7,28.8,N/A,,Clear,360,2014-01-05 12:53:00
7:53 AM,19.9,12.9,74,30.22,10.0,North,18.4,27.6,N/A,,Clear,10,2014-01-05 13:53:00
8:53 AM,21.0,12.9,71,30.27,10.0,North,24.2,29.9,N/A,,Clear,360,2014-01-05 14:53:00
9:29 AM,21.2,12.2,68,30.25,10.0,North,23.0,31.1,N/A,,Mostly Cloudy,10,2014-01-05 15:29:00
9:53 AM,21.9,12.9,68,30.30,10.0,North,27.6,33.4,N/A,,Mostly Cloudy,10,2014-01-05 15:53:00
10:27 AM,23.0,12.2,63,30.26,10.0,North,26.5,33.4,N/A,,Scattered Clouds,360,2014-01-05 16:27:00
10:53 AM,24.1,10.9,57,30.33,10.0,North,24.2,-,N/A,,Clear,360,2014-01-05 16:53:00
11:53 AM,26.1,10.0,51,30.34,10.0,North,23.0,28.8,N/A,,Clear,360,2014-01-05 17:53:00
12:53 PM,27.0,8.1,45,30.33,10.0,North,17.3,27.6,N/A,,Clear,10,2014-01-05 18:53:00
1:53 PM,27.0,6.1,41,30.35,10.0,North,20.7,-,N/A,,Clear,360,2014-01-05 19:53:00
2:53 PM,27.0,5.0,39,30.37,10.0,North,19.6,26.5,N/A,,Clear,10,2014-01-05 20:53:00
3:53 PM,27.0,6.1,41,30.39,10.0,NNE,17.3,-,N/A,,Clear,20,2014-01-05 21:53:00
4:53 PM,24.1,3.9,42,30.43,10.0,North,19.6,-,N/A,,Clear,10,2014-01-05 22:53:00
5:53 PM,19.9,3.9,50,30.48,10.0,North,16.1,-,N/A,,Clear,10,2014-01-05 23:53:00
6:53 PM,18.0,3.9,54,30.53,10.0,NNE,18.4,27.6,N/A,,Clear,30,2014-01-06 00:53:00
7:53 PM,16.0,3.9,59,30.56,10.0,NE,13.8,-,N/A,,Clear,40,2014-01-06 01:53:00
8:53 PM,15.1,3.9,61,30.62,10.0,NNE,12.7,-,N/A,,Clear,20,2014-01-06 02:53:00
9:53 PM,14.0,3.9,64,30.64,10.0,NNE,13.8,-,N/A,,Clear,30,2014-01-06 03:53:00
10:53 PM,12.9,3.9,67,30.64,10.0,NE,10.4,-,N/A,,Partly Cloudy,40,2014-01-06 04:53:00
11:53 PM,10.9,3.9,73,30.66,10.0,NE,4.6,-,N/A,,Partly Cloudy,40,2014-01-06 05:53:00